Location: Kra?nica
(53.4833°N, 14.6167°E)
Time: 06:53:32
(UTC+00:00)

Cosmos 2219 Rocket - Pass Details

Date: 23 May 2024
Orbit: 826 x 846 km, 71.0° (Epoch: 15 June)

Event Time Altitude Azimuth Distance (km) Brightness Sun altitude
Rises 00:03:48 0° 327° (NNW) 3,396 6.0 -14.5°
Reaches altitude 10° 00:06:34 10° 338° (NNW) 2,462 5.4 -14.4°
Maximum altitude 00:11:31 30° 39° (NE) 1,469 4.2 -14.2°
Drops below altitude 10° 00:16:27 10° 100° (E) 2,464 4.7 -14.0°
Sets 00:19:12 0° 111° (ESE) 3,399 5.3 -13.8°
